阿斯特拉 1B星 (ASTRA 1B)

导读 | 星芒AI

ASTRA 1B 是由Eutelsat公司运营的一颗通信卫星,于1994年发射,定位在东经19.2度轨道位置。该卫星主要用于欧洲地区的电视广播和数据传输服务,支持多套电视频道的直接到户(DTH)传播。ASTRA 1B 在推动欧洲卫星电视普及方面发挥了重要作用,为多个欧洲国家提供高质量的信号覆盖。尽管已服役多年,它仍在部分业务中继续运行,是欧洲卫星通信发展史上的重要里程碑。

基本信息
目录编号:
21139
目录名称:
ASTRA 1B
国际标识:
1991-015A
轨道中心:
EARTH
卫星名称:
阿斯特拉 1B星
卫星全名:
阿斯特拉 1B星 (ASTRA 1B)
卫星状态:
在轨 (已飞行12666 天)
发射日期:
1991-03-02 UTC
国别 :
(SES)
星等 :
--
轨道信息
数据来源 国际轨道数据 AOE轨道数据
星历时间 2025-11-03T15:09:19+0800
1天前
查看轨道信息
2025-11-03T15:00:00+0800
1天前
查看轨道信息
半长轴 42666.317km 42666.346km
偏心率 0.0005404 0.000542
轨道倾角 13.088° 13.088°
近地点辐角 355.836° 352.538°
升交点赤经 23.856° 23.857°
平近点角 19.915° 20.918°
近地点 36265.125km 36265.085km
远地点 36311.239km 36311.337km
周期 1461.798分钟 1461.800分钟
每日圈数 0.985088 0.985087
详细信息
卫星平台:
GE-5000
平衡模式:
三轴稳定
覆盖范围:
全球
运营商:
欧洲卫星公司
运营商所在国:
卢森堡
制造商(研发单位):
通用电力
制造商所在国:
美国
使用方式:
暂无
卫星简介
阿斯特拉卫星是由SES阿斯特拉运营的商业通信卫星,主要提供电视直播到户业务。Astra卫星包括三个系列共19颗卫星,分别定点在三个不同轨位:Astra-1系列包括十三颗卫星,定点东经19.2度;Astra-2系列包括4颗卫星,定点东经28.2度;Astra-3系列包括2颗卫星,定点东经23.5度。该卫星已退役。
2D轨道图
3D轨道图
轨道高度分析图
轨道倾角分析图
轨道综合分析图
查看轨道综合分析图